AirNav   Everest Fuels
 
 505 users online  

06AK June Lake Airpark
Wasilla, Alaska, USA

GOING TO WASILLA?


FAA INFORMATION EFFECTIVE 22 APRIL 2021

Location

FAA Identifier: 06AK
Lat/Long: 61-37-39.4300N 149-34-31.1900W
61-37.657167N 149-34.519833W
61.6276194,-149.5753306
(estimated)
Elevation: 425 ft. / 130 m (estimated)
From city: 4 miles W of WASILLA, AK
Time zone: UTC -8 (UTC -9 during Standard Time)
Zip code: 99623

Airport Operations

Airport use: Private use. Permission required prior to landing
Activation date: 01/2007
Control tower: no
ARTCC: ANCHORAGE CENTER
FSS: KENAI FLIGHT SERVICE STATION [907-283-7211]
Attendance: IREG
Segmented circle: no

Airport Communications

CTAF: 122.8
WX AWOS-3P at IYS (3 nm S): 135.25 (907-373-3801)
WX AWOS-3P at BCV (13 nm S): 135.55 (907-688-0826)
WX ASOS at PAQ (14 nm E): 134.75 (907-746-6675)

Nearby radio navigation aids

VOR radial/distance  VOR name  Freq  Var
BGQr054/11.7BIG LAKE VORTAC112.5019E
TEDr004/29.7ANCHORAGE VOR/DME113.1518E

Airport Services

Runway Information

Runway 16/34

Dimensions: 1750 x 40 ft. / 533 x 12 m
Surface: gravel
RUNWAY 16  RUNWAY 34
Traffic pattern: leftleft
Runway heading: 160 true340 true

Airport Ownership and Management from official FAA records

Ownership: Privately-owned
Owner: JUNE LAKE AIRPARK OWNERS ASSN.
4770 W. AIRPARK DR.
WASILLA, AK 99623
Phone 907-357-1949
Manager: HOWARD NUGENT
JUNE LAKE AIRPARK OWNERS ASSN., 4237 EAST MERIDIAN LOOP
WASILLA, AK 99654
Phone 907-376-4711

Airport Operational Statistics

Aircraft based on the field: 3
Single engine airplanes: 3
    
Aircraft operations: 150/year
100% local general aviation

Instrument Procedures

There are no published instrument procedures at 06AK.

Some nearby airports with instrument procedures:

PAWS - Wasilla Airport (3 nm S)
PAGQ - Big Lake Airport (9 nm SW)
PAAQ - Warren "Bud" Woods Palmer Municipal Airport (14 nm E)
PAUO - Willow Airport (16 nm NW)
PAFR - Bryant Army Airfield Heliport (22 nm S)
 
Loc | Ops | Rwys | IFR | FBO | Links
Com | Nav | Svcs | Stats | Notes

Crowley
 
Area around 06AK (June Lake Airpark)
 
Road maps at: MapQuest Bing Google
 
Aerial photo
No photo
 
Sectional chart

 
Airport distance calculator
Flying to June Lake Airpark? Find the distance to fly.

From to 06AK

Sunrise and sunset
Times for 13-May-2021
 Local
(UTC-8)
 Zulu
(UTC)
Morning civil twilight04:0312:03
Sunrise05:1313:13
Sunset22:3606:36
Evening civil twilight23:4707:47

Current date and time
Zulu (UTC)  14-May-2021 07:27:33
Local (UTC-8)  13-May-2021 23:27:33
 
METAR
PABV 
13nm S 
140656Z AUTO 19003KT 10SM BKN100 12/01 A2996 RMK AO2 RAE01 SLP150 P0000 T01220006
PAAQ 
14nm E 
140653Z AUTO 01004KT 10SM CLR 10/06 A2994 RMK AO2 SLP141 T01000056 TSNO $
PAFR 
22nm S 
140658Z AUTO 00000KT 9SM FEW065 10/00 A2992 RMK AO2 SLP139 T00961000 PNO $
PAED 
24nm S 
140656Z 26004KT 10SM BKN070 11/01 A2994 RMK AO2A SLP135 T01080005 $
PAWS 
25nm NE 
140656Z AUTO 00000KT 10SM BKN100 10/05 A2996 RMK AO2 SLP149 T01000050
TAF
PAAQ 
14nm E 
140525Z 1406/1506 14010KT P6SM SCT060 OVC080 FM140900 VRB04KT P6SM SCT100 FM142300 14015G25KT P6SM SCT060 FM150500 14010KT P6SM SCT060 BKN080
NOTAMs
Click for the latest NOTAMs
NOTAMs are issued by the DoD/FAA and will open in a separate window not controlled by AirNav.

 

 
 

Would you like to see your business listed on this page?

 If your business provides an interesting product or service to pilots, flight crews, aircraft, or users of the June Lake Airpark, you should consider listing it here.  To start the listing process, click on the button below
 
Add a business
 

Other Pages about June Lake Airpark

Update a link
 
Copyright © AirNav, LLC. All rights reserved. Privacy Policy  Contact